Theta_e
299 297 294 297 299 298 296 294 294 295 295 295 297 297 297 294 293 293 293 293 292 292 292 293 294 295 298 299 300 301 302 303 306 305 304 303 300 298 297 297 298 300 301 302
295 293 299 297 297 295 294 293 293 294 294 294 295 295 298 293 293 293 292 292 292 291 292 292 293 294 295 296 298 300 301 302 304 304 302 300 296 294 294 293 293 294 295 296
295 296 297 295 292 292 293 292 293 293 293 294 292 293 294 289 290 290 291 292 292 292 291 291 291 292 293 293 294 295 297 299 300 298 297 295 295 294 292 291 291 291 292 292
294 297 293 292 292 293 291 294 293 291 291 289 291 289 292 290 289 289 289 291 291 291 290 290 290 290 290 290 292 293 294 294 295 297 297 297 293 289 289 289 290 290 291 290
294 292 293 292 293 294 293 294 292 292 291 290 289 288 293 289 287 288 289 290 292 291 291 289 289 288 289 290 290 291 291 291 292 292 292 291 289 289 289 289 289 289 289 290
296 296 296 296 293 295 293 292 290 290 290 284 290 289 291 289 291 290 290 290 291 290 289 288 288 288 287 289 290 290 289 288 290 290 290 290 289 289 288 289 288 288 288 288
294 293 294 294 292 292 293 291 286 284 283 283 286 286 292 295 292 292 290 290 291 290 289 287 287 287 287 287 288 288 288 287 288 289 289 289 289 289 288 288 288 287 287 287
290 288 291 294 296 292 290 293 288 281 280 284 284 283 290 291 292 291 293 292 291 289 289 288 288 287 287 287 287 287 287 286 288 288 288 288 289 288 288 288 287 286 286 285
289 290 292 292 292 295 289 287 293 283 279 284 287 288 290 288 287 288 289 290 289 289 289 288 288 287 287 286 286 287 287 286 287 287 288 288 288 287 287 287 287 286 286 284
294 289 289 289 292 291 291 294 286 287 281 280 283 284 289 286 288 287 287 288 289 290 289 289 288 287 287 286 286 287 287 286 287 287 287 287 287 287 287 286 285 285 284 284
293 291 287 288 288 289 287 287 288 290 288 284 282 285 292 292 292 288 289 290 291 290 289 289 289 288 286 286 286 286 286 286 286 287 287 286 286 286 286 285 284 284 283 282
296 291 285 286 289 290 292 290 290 287 281 284 283 287 290 292 292 292 291 291 292 291 290 290 290 288 286 285 285 285 285 286 286 287 286 286 286 285 285 284 283 283 282 282
294 290 285 285 287 288 286 289 291 292 288 285 284 287 288 289 289 291 291 290 290 291 291 290 290 288 287 285 285 285 285 286 286 286 286 285 285 284 284 284 283 283 281 280
297 291 289 287 290 291 286 288 288 289 287 287 286 291 286 289 289 289 290 290 291 290 290 289 289 289 289 287 285 285 285 286 286 285 285 284 284 284 284 283 282 281 279 279
294 287 291 293 290 291 291 288 288 287 289 287 290 289 290 291 291 291 292 291 290 290 290 289 289 289 289 287 286 285 285 285 285 284 284 284 285 285 283 282 280 278 278 277
290 287 290 287 289 286 285 289 289 288 290 290 290 289 295 293 293 292 291 290 289 289 290 290 289 289 288 287 286 285 284 284 284 284 284 284 284 282 281 280 278 277 276 275
287 287 284 283 287 282 279 285 288 288 291 291 286 291 289 288 289 291 291 290 290 290 290 290 289 288 288 287 286 285 285 284 283 283 284 283 283 281 280 278 276 275 274 274
285 285 285 277 279 275 284 281 289 288 289 289 286 288 290 291 291 291 292 291 289 289 288 289 289 288 287 287 286 286 284 283 282 282 282 282 281 279 278 275 274 274 273 272
283 286 278 277 277 281 278 279 283 285 286 288 288 286 283 282 285 284 285 288 290 288 288 289 289 287 285 285 285 283 282 282 282 281 281 281 279 277 275 274 273 273 272 271
281 283 284 277 277 277 285 280 280 285 281 285 288 284 282 282 283 287 283 284 284 285 285 285 285 284 284 283 282 281 281 281 281 281 281 280 277 274 273 273 271 272 271 270
278 279 280 278 278 281 284 279 280 279 284 282 287 285 281 282 287 284 283 282 284 284 283 284 283 283 283 281 281 280 281 280 282 280 278 276 274 272 272 271 270 269 269 268
279 279 278 279 278 276 279 278 280 285 280 281 282 282 281 281 280 281 282 281 281 282 281 282 281 281 281 281 280 280 279 281 278 276 275 273 270 271 269 268 268 267 267 266
277 283 280 282 282 279 282 283 283 283 283 281 282 282 282 281 280 281 281 281 281 282 281 281 281 280 279 280 280 280 281 276 274 272 271 269 268 268 268 267 267 267 267 267
276 277 278 279 277 278 280 281 282 282 283 282 283 282 282 281 280 280 280 280 280 280 279 279 279 278 279 278 277 279 276 274 270 270 269 267 266 267 266 268 268 268 268 268
278 278 275 275 276 278 279 281 282 282 281 280 280 280 281 280 280 280 280 280 280 280 278 278 278 279 280 278 277 275 273 270 270 269 268 269 268 267 268 268 269 268 269 268
277 276 275 276 279 280 281 283 282 281 281 281 281 279 280 280 280 280 279 280 279 279 278 277 277 277 277 274 272 269 268 269 269 269 268 269 269 268 268 268 267 269 270 271
Wind_Speed
3 9 14 20 19 7 2 5 8 3 2 5 12 13 11 8 6 7 6 5 5 5 5 5 6 5 6 7 7 8 10 9 9 9 9 9 10 10 10 10 13 13 12 11
5 16 17 0 9 10 8 10 13 5 3 5 10 14 9 9 6 6 8 8 7 7 6 6 7 7 7 8 8 9 9 8 7 7 8 7 8 9 9 10 12 13 13 12
16 3 8 10 7 11 13 15 12 10 3 4 6 14 14 4 4 6 6 7 7 8 8 7 7 7 7 9 8 8 9 10 10 13 11 11 10 8 9 10 9 12 14 13
11 5 8 11 13 13 17 13 10 8 5 10 3 8 5 8 9 10 11 11 11 9 6 6 7 8 8 8 7 8 8 9 8 8 8 11 10 11 9 9 9 10 13 14
6 10 12 12 9 12 5 5 9 7 11 6 9 8 4 6 13 14 16 15 14 13 11 10 8 6 6 6 7 9 12 11 10 11 12 11 14 10 8 8 11 11 11 12
6 1 6 6 3 6 14 7 5 3 3 10 15 14 8 8 10 18 18 18 16 13 11 8 6 5 6 6 7 9 12 12 10 10 12 14 14 12 9 9 8 7 7 7
8 10 4 4 6 2 7 11 5 6 7 8 3 11 11 8 8 14 24 22 19 15 13 11 10 9 7 7 8 9 11 12 10 11 11 12 11 12 12 9 7 8 7 6
11 9 16 14 18 12 19 19 7 8 7 3 2 9 6 1 6 3 17 19 19 17 14 13 12 10 10 9 7 9 10 12 11 11 11 10 9 7 7 8 7 7 7 6
10 9 4 6 5 14 10 12 4 5 1 2 6 5 5 6 6 8 15 19 19 18 17 16 14 13 12 10 10 10 10 10 10 10 9 9 9 9 8 9 8 7 7 6
6 7 2 4 4 1 6 13 7 6 6 7 5 7 8 11 15 13 17 21 21 19 18 16 14 13 12 12 11 11 10 11 10 10 9 8 9 8 8 7 9 8 7 6
5 5 4 5 14 18 7 9 5 4 4 4 4 7 7 13 19 21 20 22 23 21 19 18 16 14 13 12 12 12 12 12 11 10 10 10 9 8 7 7 7 7 6 5
11 3 6 14 0 3 12 9 14 9 7 5 3 6 4 4 10 15 16 19 20 21 20 18 17 17 16 15 14 14 13 13 12 11 10 10 9 8 8 7 7 6 5 4
16 6 3 3 6 4 10 13 15 11 2 12 8 5 2 3 7 11 14 17 19 20 21 19 17 16 16 16 15 15 14 13 13 12 11 10 10 9 8 7 7 5 5 4
18 8 17 19 7 13 13 17 15 14 10 9 19 8 8 10 11 12 13 16 20 20 20 18 17 17 16 15 15 15 15 14 13 12 12 11 11 10 9 8 7 5 4 3
14 15 22 28 12 12 13 21 22 24 29 17 19 19 15 17 16 17 18 16 17 19 19 20 18 17 16 15 15 15 14 14 14 13 13 12 11 10 9 8 7 5 5 4
4 12 19 24 13 10 6 15 27 29 27 24 13 14 10 12 6 11 15 16 18 18 20 19 15 15 15 15 16 14 14 14 13 14 14 11 10 10 9 8 7 6 5 4
7 10 6 19 11 1 7 26 18 19 22 23 21 16 6 7 12 14 15 16 17 15 16 16 15 13 13 14 13 15 14 11 12 11 9 9 9 9 9 8 7 6 5 4
6 5 5 3 4 10 3 2 14 18 13 10 0 4 11 8 7 5 8 13 11 10 11 13 11 10 10 10 12 11 11 11 10 10 9 8 9 9 8 8 7 5 4 4
3 4 5 5 6 6 2 6 9 16 15 11 12 5 5 5 4 2 4 5 8 9 8 8 7 7 7 9 10 9 9 9 10 11 10 10 10 9 9 8 7 5 4 4
2 4 6 5 6 10 3 3 2 3 5 8 10 9 9 6 5 5 10 7 6 7 6 7 7 6 7 7 8 9 8 9 11 10 11 10 10 9 9 8 7 4 4 5
6 3 12 6 6 5 3 6 3 8 5 4 8 10 12 7 3 4 10 6 5 5 7 7 8 8 7 7 8 8 7 11 8 6 7 8 9 9 8 7 5 5 5 5
12 11 6 4 6 10 8 5 9 3 2 5 6 8 9 5 7 9 10 8 7 7 7 7 6 6 6 7 8 6 8 5 6 7 8 9 8 7 6 7 6 5 5 6
5 4 5 6 2 3 10 2 2 3 6 6 8 8 10 10 8 11 9 8 8 8 6 5 8 7 5 6 7 8 6 7 7 8 8 8 8 7 7 8 7 6 7 6
4 3 2 3 1 2 8 1 2 2 2 4 3 7 10 11 8 8 6 7 7 6 7 5 6 6 7 7 7 8 6 8 8 8 8 8 8 9 8 6 6 6 6 6
1 7 5 1 1 2 4 8 4 5 3 5 4 5 9 7 6 7 7 6 6 5 4 5 7 7 9 6 7 5 6 8 8 7 7 8 6 7 7 7 7 7 7 7
6 6 5 4 8 5 6 12 12 8 7 6 7 4 3 6 7 6 5 5 5 5 4 5 7 5 3 3 3 4 5 7 7 7 6 5 5 6 5 6 6 12 14 14
Wind_Direction
146 209 216 213 214 234 208 217 234 204 165 234 241 251 197 179 183 190 176 157 127 89 60 48 42 45 76 78 89 89 99 104 119 116 107 89 80 79 72 63 53 50 49 48
169 228 231 302 204 204 226 241 244 272 206 237 255 252 242 195 205 199 174 160 146 133 109 84 72 68 62 64 69 81 83 96 105 109 109 100 99 82 82 77 66 62 57 54
214 176 203 181 170 202 230 231 233 255 153 231 275 259 226 191 182 168 174 155 153 145 135 113 88 74 74 61 51 62 73 82 91 104 109 107 106 99 87 74 67 58 68 64
242 183 154 188 211 201 241 217 233 227 236 260 224 282 209 186 186 193 178 180 168 164 148 121 105 78 67 66 73 76 72 73 72 85 97 97 98 98 85 78 77 68 57 59
199 176 193 206 204 188 255 148 209 219 235 265 201 258 183 173 209 197 188 185 179 174 164 151 132 112 94 93 92 94 93 86 84 89 97 101 106 106 104 98 91 79 70 62
264 58 200 204 98 188 134 102 83 108 198 249 225 220 194 198 211 179 186 187 182 177 168 157 134 132 113 105 99 99 96 89 91 95 99 105 113 119 119 112 95 84 74 64
208 214 177 169 136 108 178 159 196 217 205 247 149 215 257 217 179 188 182 183 180 177 174 172 170 160 149 133 122 116 109 100 100 99 102 107 111 113 109 105 102 96 80 68
199 230 186 188 214 188 195 187 191 216 203 176 127 228 236 5 131 124 182 179 172 177 179 182 176 170 159 152 141 129 127 124 123 119 118 117 114 108 102 101 104 95 92 76
194 242 190 194 140 170 182 214 181 106 314 248 205 239 224 165 170 155 170 176 181 185 183 186 182 178 170 169 164 152 143 135 134 132 130 121 120 121 120 117 109 104 101 96
200 250 230 143 134 222 209 150 174 222 212 227 212 249 228 203 197 183 184 187 185 185 186 186 186 183 177 175 169 165 159 156 153 150 140 137 133 130 127 123 108 104 101 95
137 239 139 148 206 189 162 188 210 213 214 224 249 228 211 195 192 186 193 194 186 185 186 188 189 187 182 179 178 172 172 170 170 166 155 151 149 143 135 125 122 121 121 114
190 170 187 205 63 284 242 217 190 203 189 242 313 255 147 169 178 187 188 193 190 187 187 193 189 186 182 186 184 184 183 184 181 172 168 163 157 155 147 142 136 145 137 133
173 199 180 230 219 188 220 207 220 239 62 204 194 226 155 162 206 194 181 188 188 189 190 191 193 192 189 191 186 189 190 191 183 177 177 174 173 171 164 159 152 151 149 139
167 173 214 225 225 155 208 208 205 203 228 205 231 236 189 196 206 187 187 188 191 191 190 193 196 199 194 190 192 193 193 194 184 187 188 186 187 183 175 168 160 159 150 156
184 220 218 239 259 204 207 198 193 209 221 211 243 229 196 193 196 197 194 185 183 192 195 199 201 200 194 192 195 198 198 191 188 191 196 200 192 185 176 172 168 164 175 180
189 231 227 248 219 225 240 218 204 210 219 234 238 242 199 191 160 183 190 182 191 197 200 202 201 196 198 198 201 195 198 193 189 196 204 200 190 183 184 177 175 184 183 195
173 210 180 238 230 156 268 225 216 215 220 220 220 228 144 171 194 200 192 189 197 197 198 195 193 192 199 203 195 197 193 184 188 196 201 190 184 186 189 181 179 194 199 197
171 170 196 114 149 219 300 357 208 215 206 202 50 165 174 184 188 155 177 185 185 180 184 186 178 190 193 192 196 190 180 180 184 197 195 184 183 188 187 188 193 197 201 222
300 177 155 182 208 332 276 218 177 186 223 195 213 143 115 114 118 184 181 176 183 177 176 182 167 171 172 185 184 171 168 175 185 202 199 189 184 184 187 194 195 200 209 228
224 284 224 155 204 216 188 179 208 131 258 200 182 148 150 153 178 199 171 156 142 142 147 153 154 157 174 176 158 163 176 177 202 203 202 184 178 172 177 187 189 196 210 233
165 207 225 198 222 257 219 157 171 156 229 132 161 161 160 191 206 128 141 150 150 153 153 147 164 177 179 145 152 183 170 205 206 155 157 165 170 170 175 173 186 194 213 238
179 172 191 167 217 247 151 103 177 148 47 144 154 166 171 142 137 141 147 146 153 160 165 171 163 192 167 155 161 180 201 184 149 157 165 165 163 169 170 178 189 205 215 234
213 183 173 213 218 5 177 69 163 182 153 183 157 161 157 151 166 163 165 165 177 183 185 170 186 187 169 173 178 189 213 161 160 161 165 163 164 177 176 186 201 210 214 230
232 180 146 177 144 100 201 313 162 221 191 143 132 145 163 172 165 170 153 169 183 186 197 176 173 196 203 190 193 218 161 164 161 170 170 170 181 187 193 203 210 219 223 229
67 149 137 77 195 120 226 238 219 178 112 120 128 156 179 141 163 175 189 176 192 195 177 176 197 210 224 160 200 184 167 156 171 173 177 185 196 199 203 219 222 227 233 231
180 155 180 197 190 162 202 211 198 173 188 182 157 143 177 176 194 169 202 197 184 205 175 197 212 219 198 169 165 153 153 164 161 175 183 195 202 205 220 232 242 241 245 243